Weather in Orlovskiy

Russia / Rostov Oblast     46°52′22″N   42°03′10″E
temp.,
°C
wind,
m/s
gust,
m/s
humid.,
%
clouds,
%
prec.,
mm/h
press.,
hPa
HPBL,
m
5 december, sun
sun500:00+7se4665100 0.0 101195
03:00+6se3668100 0.0 101088
06:00+6s3470100 0.1 101169
09:00+8s61591100 6.4 1011530
12:00+8s4128692 0.3 1010530
15:00+9ssw61370100 0.5 1010573
18:00+8wsw61188100 0.1 1013635
21:00+6wnw4790100 0.1 1015380
6 december, mon
mon600:00+6wnw368878 0.0 1016350
03:00+4wnw2394100 0.0 1018108
06:00+5wnw1389100 0.0 1019145
09:00+5w0184100 0.0 1020109
12:00+7w237261 0.0 1020674
15:00+8sw1268100 0.0 1020508
18:00+6ese2281100 0.0 102129
21:00+6ese238793 0.0 102275
7 december, tue
tue700:00+7ese4785100 0.0 1022164
03:00+6ese5988100 0.0 1021193
06:00+6ese61185100 0.0 1021216
09:00+7se71381100 0.0 1021297
12:00+10se8136983 0.0 1020405
15:00+10ese81471100 0.0 1018481
18:00+9ese91775100 0.0 1018507
21:00+8ese918775 0.0 1016510
8 december, wed
wed800:00+7ese919798 0.0 1015533
03:00+6ese91688100 0.0 1014567
06:00+7se91481100 0.0 1012721
09:00+8ese71180100 0.0 1013736
12:00+9ese8107397 0.0 1011669
15:00+9ese6976100 0.0 1010576
18:00+8e4985100 0.0 1011326
21:00+6e369395 0.0 1011125
9 december, thu
thu900:00+6sse2294100 0.0 101223
03:00+6e3594100 0.0 101284
06:00+6ssw2393100 0.0 101457
09:00+7w3787100 0.0 1015160
12:00+10wsw4680100 0.0 1016523
15:00+10w7969100 0.0 10171011
18:00+9wsw5966100 0.0 1018551
21:00+9wsw5107299 0.0 1019614